This is the latest recevied weather packets stored in our database for station/object LA1HSA-13. If no packets are shown the sender has not sent any weather packets the latest 10 day(s).
| Time | Temp. | Humidity | Pressure | Rain* | Wind** | Luminosity | Snow |
|---|---|---|---|---|---|---|---|
| 1777911004 | 13.89° C | 40% | 1002.7 hPa | 0 mm | - | - | - |
| 1777910403 | 15.56° C | 39% | 1002.9 hPa | 0 mm | - | - | - |
| 1777909803 | 14.44° C | 40% | 1002.9 hPa | 0 mm | - | - | - |
| 1777909203 | 13.89° C | 41% | 1003.1 hPa | 0 mm | - | - | - |
| 1777908603 | 13.89° C | 40% | 1003 hPa | 0 mm | - | - | - |
| 1777908004 | 14.44° C | 41% | 1003.4 hPa | 0 mm | - | - | - |
| 1777907403 | 14.44° C | 39% | 1003.3 hPa | 0 mm | - | - | - |
| 1777906804 | 15° C | 38% | 1003.2 hPa | 0 mm | - | - | - |
| 1777906203 | 14.44° C | 38% | 1003.3 hPa | 0 mm | - | - | - |
| 1777905603 | 14.44° C | 38% | 1003.5 hPa | 0 mm | - | - | - |
| 1777905003 | 13.33° C | 39% | 1003.7 hPa | 0 mm | - | - | - |
| 1777904403 | 13.89° C | 38% | 1003.8 hPa | 0 mm | - | - | - |
| 1777903804 | 14.44° C | 36% | 1003.7 hPa | 0 mm | - | - | - |
| 1777903203 | 14.44° C | 36% | 1004 hPa | 0 mm | - | - | - |
| 1777902603 | 14.44° C | 36% | 1004 hPa | 0 mm | - | - | - |
| 1777902003 | 14.44° C | 35% | 1004 hPa | 0 mm | - | - | - |
| 1777901403 | 14.44° C | 34% | 1004 hPa | 0 mm | - | - | - |
| 1777900803 | 14.44° C | 33% | 1004 hPa | 0 mm | - | - | - |
| 1777900203 | 15° C | 34% | 1004.2 hPa | 0 mm | - | - | - |
| 1777899603 | 13.89° C | 35% | 1004.1 hPa | 0 mm | - | - | - |
| 1777899003 | 15° C | 34% | 1004.3 hPa | 0 mm | - | - | - |
| 1777898403 | 15° C | 33% | 1004 hPa | 0 mm | - | - | - |
| 1777897803 | 14.44° C | 33% | 1004.2 hPa | 0 mm | - | - | - |
| 1777897204 | 15° C | 33% | 1004.1 hPa | 0 mm | - | - | - |
| 1777896603 | 15° C | 33% | 1003.9 hPa | 0 mm | - | - | - |
* Rain latest hour (hover to see other rain measurements)
** Current wind speed in m/s (hover to see current wind gust speed)